This is the latest recevied weather packets stored in our database for station/object N8AMF. If no packets are shown the sender has not sent any weather packets the latest 10 day(s).
| Time | Temp. | Humidity | Pressure | Rain* | Wind** | Luminosity | Snow |
|---|---|---|---|---|---|---|---|
| 1777554433 | 7.78° C | 81% | 1012.9 hPa | 0 mm | - | 237 W/m² | - |
| 1777554130 | 7.22° C | 81% | 1013 hPa | 0 mm | - | 231 W/m² | - |
| 1777553827 | 7.22° C | 81% | 1013.1 hPa | 0 mm | - | 202 W/m² | - |
| 1777553523 | 6.67° C | 81% | 1012.9 hPa | 0 mm | - | 149 W/m² | - |
| 1777553219 | 6.67° C | 82% | 1013 hPa | 0 mm | - | 123 W/m² | - |
| 1777552915 | 6.67° C | 82% | 1012.8 hPa | 0 mm | - | 95 W/m² | - |
| 1777552615 | 6.67° C | 82% | 1012.9 hPa | 0 mm | - | 113 W/m² | - |
| 1777552312 | 7.22° C | 83% | 1012.8 hPa | 0 mm | - | 138 W/m² | - |
| 1777552009 | 6.67° C | 83% | 1012.9 hPa | 0 mm | - | 139 W/m² | - |
| 1777551706 | 6.67° C | 83% | 1012.9 hPa | 0 mm | - | 168 W/m² | - |
| 1777551404 | 6.67° C | 84% | 1012.9 hPa | 0 mm | - | 141 W/m² | - |
| 1777551100 | 6.67° C | 85% | 1012.8 hPa | 0 mm | - | 114 W/m² | - |
| 1777550797 | 6.11° C | 85% | 1012.8 hPa | 0 mm | - | 111 W/m² | - |
| 1777550493 | 6.11° C | 85% | 1012.8 hPa | 0 mm | - | 118 W/m² | - |
| 1777550189 | 6.11° C | 86% | 1012.8 hPa | 0 mm | - | 97 W/m² | - |
| 1777549886 | 6.11° C | 86% | 1012.6 hPa | 0 mm | - | 102 W/m² | - |
| 1777549582 | 5.56° C | 87% | 1012.7 hPa | 0 mm | - | 84 W/m² | - |
| 1777549278 | 5.56° C | 87% | 1012.6 hPa | 0 mm | - | 55 W/m² | - |
| 1777548975 | 5.56° C | 87% | 1012.8 hPa | 0 mm | - | 35 W/m² | - |
| 1777548672 | 5.56° C | 88% | 1012.9 hPa | 0 mm | - | 36 W/m² | - |
| 1777548369 | 5.56° C | 88% | 1012.8 hPa | 0 mm | - | 31 W/m² | - |
| 1777548067 | 5.56° C | 89% | 1012.7 hPa | 0 mm | - | 35 W/m² | - |
| 1777547762 | 5.56° C | 89% | 1012.6 hPa | 0 mm | - | 27 W/m² | - |
| 1777547458 | 5° C | 90% | 1012.5 hPa | 0.51 mm | - | 14 W/m² | - |
| 1777547155 | 5° C | 90% | 1012.5 hPa | 0.51 mm | - | 7 W/m² | - |
* Rain latest hour (hover to see other rain measurements)
** Current wind speed in m/s (hover to see current wind gust speed)